TimeCST,TemperatureF,Dew PointF,Humidity,Sea Level PressureIn,VisibilityMPH,Wind Direction,Wind SpeedMPH,Gust SpeedMPH,PrecipitationIn,Events,Conditions,WindDirDegrees,DateUTC
12:53 AM,32.0,18.0,56,30.19,10.0,NNE,9.2,-,N/A,,Clear,20,2013-02-08 06:53:00
1:53 AM,33.1,19.0,56,30.19,10.0,NNE,9.2,-,N/A,,Clear,20,2013-02-08 07:53:00
2:53 AM,30.9,18.0,59,30.19,10.0,NNE,9.2,-,N/A,,Clear,30,2013-02-08 08:53:00
3:53 AM,30.0,18.0,61,30.19,10.0,NE,9.2,-,N/A,,Clear,50,2013-02-08 09:53:00
4:53 AM,28.9,18.0,64,30.19,10.0,ENE,5.8,-,N/A,,Clear,60,2013-02-08 10:53:00
5:53 AM,27.0,18.0,69,30.21,10.0,ENE,8.1,-,N/A,,Clear,70,2013-02-08 11:53:00
6:53 AM,30.9,21.0,67,30.21,10.0,East,10.4,-,N/A,,Scattered Clouds,90,2013-02-08 12:53:00
7:53 AM,30.0,21.0,69,30.23,10.0,ESE,9.2,-,N/A,,Mostly Cloudy,110,2013-02-08 13:53:00
8:53 AM,36.0,24.1,62,30.24,10.0,SE,9.2,-,N/A,,Overcast,130,2013-02-08 14:53:00
9:53 AM,42.8,24.8,49,30.24,10.0,SE,13.8,-,N/A,,Mostly Cloudy,130,2013-02-08 15:53:00
10:53 AM,46.9,19.0,33,30.23,10.0,SE,16.1,-,N/A,,Mostly Cloudy,130,2013-02-08 16:53:00
11:53 AM,50.0,15.1,25,30.20,10.0,SE,16.1,-,N/A,,Mostly Cloudy,140,2013-02-08 17:53:00
12:53 PM,53.1,16.0,23,30.17,10.0,SSE,16.1,-,N/A,,Mostly Cloudy,150,2013-02-08 18:53:00
1:53 PM,55.0,17.1,23,30.12,10.0,SSE,13.8,-,N/A,,Mostly Cloudy,160,2013-02-08 19:53:00
2:53 PM,57.0,16.0,20,30.08,10.0,SSE,18.4,-,N/A,,Mostly Cloudy,160,2013-02-08 20:53:00
3:53 PM,55.9,15.1,20,30.06,10.0,SE,18.4,-,N/A,,Mostly Cloudy,140,2013-02-08 21:53:00
4:53 PM,55.9,16.0,21,30.03,10.0,SE,18.4,-,N/A,,Overcast,140,2013-02-08 22:53:00
5:53 PM,53.1,16.0,23,30.04,10.0,SE,18.4,-,N/A,,Overcast,140,2013-02-08 23:53:00
6:53 PM,48.9,16.0,27,30.03,10.0,SE,11.5,-,N/A,,Mostly Cloudy,130,2013-02-09 00:53:00
7:53 PM,46.0,16.0,30,30.04,10.0,SE,11.5,-,N/A,,Mostly Cloudy,130,2013-02-09 01:53:00
8:53 PM,44.1,16.0,32,30.04,10.0,SE,11.5,-,N/A,,Mostly Cloudy,140,2013-02-09 02:53:00
9:53 PM,41.0,16.0,36,30.02,10.0,East,10.4,-,N/A,,Mostly Cloudy,90,2013-02-09 03:53:00
10:53 PM,41.0,16.0,36,29.99,10.0,ESE,10.4,-,N/A,,Overcast,120,2013-02-09 04:53:00
11:53 PM,42.1,16.0,35,29.95,10.0,SE,13.8,-,N/A,,Mostly Cloudy,140,2013-02-09 05:53:00